This is the latest recevied weather packets stored in our database for station/object DW9280. If no packets are shown the sender has not sent any weather packets the latest 1 day(s).
| Time | Temp. | Humidity | Pressure | Rain* | Wind** | Luminosity | Snow |
|---|---|---|---|---|---|---|---|
| 1777973069 | 11.11° C | 85% | 1012.1 hPa | 0 mm | 1.79 m/s, 355° | 197 W/m² | - |
| 1777972645 | 11.11° C | 85% | 1012.1 hPa | 0 mm | 1.34 m/s, 62° | 162 W/m² | - |
| 1777972347 | 11.11° C | 85% | 1012.1 hPa | 0 mm | 1.34 m/s, 54° | 165 W/m² | - |
| 1777972070 | 11.11° C | 86% | 1012.1 hPa | 0 mm | 1.79 m/s, 40° | 174 W/m² | - |
| 1777971860 | 11.11° C | 86% | 1012 hPa | 0 mm | 1.79 m/s, 38° | 188 W/m² | - |
| 1777971434 | 10.56° C | 86% | 1012 hPa | 0 mm | 1.79 m/s, 22° | 169 W/m² | - |
| 1777971133 | 10.56° C | 87% | 1011.9 hPa | 0 mm | 2.24 m/s, 43° | 211 W/m² | - |
| 1777970831 | 10.56° C | 87% | 1011.9 hPa | 0 mm | 2.24 m/s, 24° | 185 W/m² | - |
| 1777970531 | 10.56° C | 87% | 1011.9 hPa | 0 mm | 2.24 m/s, 23° | 181 W/m² | - |
| 1777970230 | 10.56° C | 87% | 1012 hPa | 0 mm | 1.79 m/s, 5° | 146 W/m² | - |
| 1777969927 | 10.56° C | 87% | 1012 hPa | 0 mm | 2.24 m/s, 26° | 135 W/m² | - |
| 1777969751 | 10.56° C | 87% | 1012.1 hPa | 0 mm | 1.79 m/s, 45° | 114 W/m² | - |
| 1777969328 | 10.56° C | 88% | 1012.1 hPa | 0 mm | 1.34 m/s, 82° | 141 W/m² | - |
| 1777969028 | 10.56° C | 89% | 1012.1 hPa | 0 mm | 1.79 m/s, 26° | 163 W/m² | - |
| 1777968727 | 10° C | 89% | 1012.1 hPa | 0 mm | 2.24 m/s, 37° | 171 W/m² | - |
| 1777968427 | 10° C | 90% | 1012.2 hPa | 0 mm | 2.24 m/s, 25° | 172 W/m² | - |
| 1777968126 | 10° C | 91% | 1012.1 hPa | 0 mm | 1.79 m/s, 42° | 202 W/m² | - |
| 1777967826 | 10° C | 92% | 1012.2 hPa | 0 mm | 1.34 m/s, 0° | 151 W/m² | - |
| 1777967527 | 9.44° C | 92% | 1012.2 hPa | 0 mm | 0.89 m/s, 42° | 144 W/m² | - |
| 1777967227 | 9.44° C | 92% | 1012.3 hPa | 0 mm | 1.34 m/s, 44° | 116 W/m² | - |
| 1777966927 | 9.44° C | 92% | 1012.4 hPa | 0 mm | 2.24 m/s, 28° | 127 W/m² | - |
| 1777966626 | 9.44° C | 92% | 1012.4 hPa | 0 mm | 1.79 m/s, 71° | 113 W/m² | - |
| 1777966328 | 9.44° C | 92% | 1012.4 hPa | 0 mm | 1.34 m/s, 23° | 90 W/m² | - |
| 1777966028 | 9.44° C | 92% | 1012.5 hPa | 0 mm | 1.34 m/s, 57° | 88 W/m² | - |
| 1777965730 | 9.44° C | 92% | 1012.5 hPa | 0 mm | 1.34 m/s, 44° | 81 W/m² | - |
* Rain latest hour (hover to see other rain measurements)
** Current wind speed in m/s (hover to see current wind gust speed)